Tracking 19562 objects as of 25-Mar-2019
HD Live streaming from Space Station
objects crossing your sky now

BEIDOU 3M8

Track BEIDOU 3M8 now!
BEIDOU 3M8 is classified as:


NORAD ID: 43246
Int'l Code: 2018-029B
Perigee: 21,518.0 km
Apogee: 21,552.1 km
Inclination: 55.2 °
Period: 773.2 minutes
Semi major axis: 27906 km
RCS: Unknown
Launch date: March 29, 2018
Source: People's Republic of China (PRC)
Launch site: Xichang Space Center, China (XSC)
aabbcc
Your satellite tracking list
Your tracking list is empty




NASA's NSSDC Master Catalog

Two Line Element Set (TLE):
1 43246U 18029B   19083.99163344 -.00000091  00000-0  10000-3 0  9994
2 43246  55.1837  30.8844 0006112 321.9623 285.4690  1.86232753  6695
Source of the keplerian elements: AFSPC